EW7349 Weather Reports


time (UTC)temp
C
wind
direction
speed
KPH
gust
KPH
rain 1hr
cm
rain 24hr
cm
rain mn
cm
humidity
%
barometer
mb
20260906234942 23 87 0.0 1.6 0.00 0.53 0.00 74 1014.9
20260906234440 23 87 0.0 0.0 0.00 0.56 0.00 73 1014.8
20260906233941 23 87 0.0 0.0 0.00 0.61 0.00 74 1014.8
20260906233441 24 87 0.0 0.0 0.00 0.64 0.00 72 1014.7
20260906232940 24 87 0.0 0.0 0.00 0.66 0.00 71 1014.8
20260906232438 24 87 0.0 0.0 0.00 0.69 0.00 72 1014.7
20260906231938 25 87 0.0 1.6 0.00 0.71 0.00 72 1014.6
20260906231437 25 87 0.0 1.6 0.00 0.74 0.00 71 1014.6
20260906230936 25 87 0.0 1.6 0.00 0.76 0.00 70 1014.6
20260906230430 25 87 0.0 1.6 0.00 0.81 0.00 69 1014.6
20260906225925 25 87 0.0 0.0 0.00 0.84 0.00 69 1014.6
20260906225418 25 87 0.0 0.0 0.00 0.86 0.00 66 1014.5
20260906224912 26 87 0.0 0.0 0.00 0.89 0.00 68 1014.5
20260906224406 26 87 0.0 0.0 0.00 0.94 0.00 69 1014.5
20260906223901 26 87 0.0 0.0 0.00 0.97 0.00 66 1014.4
20260906223354 26 87 0.0 0.0 0.00 0.99 0.00 65 1014.4
20260906222849 26 50 0.0 0.0 0.00 1.04 0.00 66 1014.3
20260906222342 26 50 0.0 0.0 0.00 1.07 0.00 65 1014.3
20260906221836 26 50 0.0 1.6 0.00 1.12 0.00 62 1014.3
20260906221332 27 50 0.0 1.6 0.00 1.14 0.00 59 1014.3
20260906221052 27 50 0.0 4.8 0.00 1.19 0.00 61 1014.3
20260906220318 27 48 0.0 4.8 0.00 1.22 0.00 60 1014.4
20260906215812 27 67 1.6 4.8 0.00 1.27 0.00 57 1014.4
20260906215307 27 24 0.0 4.8 0.00 1.30 0.00 56 1014.3
20260906214800 27 110 1.6 6.4 0.00 1.32 0.00 57 1014.3
20260906214516 27 110 1.6 6.4 0.00 1.32 0.00 54 1014.4
20260906213749 27 39 1.6 4.8 0.00 1.32 0.00 54 1014.3
20260906213503 27 108 1.6 4.8 0.00 1.32 0.00 52 1014.3
20260906213000 27 73 0.0 1.6 0.00 1.32 0.00 56 1014.3
20260906212231 27 85 0.0 3.2 0.00 1.32 0.00 56 1014.4
20260906211724 27 327 1.6 6.4 0.00 1.32 0.00 53 1014.5
20260906211218 27 49 1.6 6.4 0.00 1.32 0.00 53 1014.4
20260906210933 27 61 1.6 6.4 0.00 1.32 0.00 53 1014.4
20260906210206 27 57 0.0 6.4 0.00 1.32 0.00 54 1014.4
20260906205706 27 275 1.6 3.2 0.00 1.32 0.00 52 1014.4
20260906205203 27 107 1.6 6.4 0.00 1.32 0.00 54 1014.5
20260906204702 27 322 1.6 6.4 0.00 1.32 0.00 51 1014.4
20260906204202 27 98 0.0 4.8 0.00 1.32 0.00 51 1014.4
20260906203702 28 41 0.0 1.6 0.00 1.32 0.00 54 1014.5
20260906203204 28 41 1.6 6.4 0.00 1.32 0.00 54 1014.5
20260906202928 27 71 1.6 6.4 0.00 1.32 0.00 52 1014.4
20260906202421 27 77 0.0 1.6 0.00 1.32 0.00 53 1014.4
20260906201656 27 126 0.0 3.2 0.00 1.32 0.00 53 1014.4
20260906201154 27 126 1.6 3.2 0.00 1.32 0.00 54 1014.4
20260906200652 28 128 1.6 3.2 0.00 1.32 0.00 51 1014.4
20260906200159 28 225 1.6 4.8 0.00 1.32 0.00 49 1014.2
20260906195653 28 107 1.6 6.4 0.00 1.32 0.00 48 1014.2
20260906195150 28 107 1.6 6.4 0.00 1.32 0.00 48 1014.2
20260906194650 30 50 1.6 6.4 0.00 1.32 0.00 45 1014.3
20260906194151 29 100 1.6 6.4 0.00 1.32 0.00 50 1014.4
20260906194128 30 286 1.6 6.4 0.00 1.32 0.00 50 1014.5
20260906193151 28 123 3.2 6.4 0.00 1.32 0.00 52 1014.4
20260906192652 29 67 3.2 6.4 0.00 1.32 0.00 48 1014.4
20260906192145 30 137 1.6 6.4 0.00 1.32 0.00 49 1014.3
20260906191639 30 0 1.6 4.8 0.00 1.32 0.00 48 1014.3
20260906191133 29 79 3.2 9.7 0.00 1.32 0.00 49 1014.4
20260906190849 30 316 1.6 9.7 0.00 1.32 0.00 46 1014.4
20260906190122 29 355 1.6 8.0 0.00 1.32 0.00 51 1014.5
20260906185615 30 43 3.2 8.0 0.00 1.32 0.00 46 1014.6
20260906185109 30 51 3.2 9.7 0.00 1.32 0.00 49 1014.7
20260906184603 28 282 3.2 9.7 0.00 1.32 0.00 53 1014.7
20260906184325 28 107 1.6 9.7 0.00 1.32 0.00 49 1014.7
20260906183551 29 103 1.6 11.3 0.00 1.32 0.00 49 1014.7
20260906183048 28 70 1.6 11.3 0.00 1.32 0.00 52 1014.9
20260906183020 29 106 1.6 11.3 0.00 1.32 0.00 49 1014.8
20260906182033 30 131 3.2 9.7 0.00 1.32 0.00 48 1014.7
20260906181527 30 150 3.2 9.7 0.00 1.32 0.00 50 1014.8
20260906181025 28 100 3.2 14.5 0.00 1.32 0.00 51 1014.8
20260906180511 28 312 3.2 14.5 0.00 1.32 0.00 50 1014.8
20260906180006 28 22 3.2 8.0 0.00 1.32 0.00 51 1014.9
20260906175714 28 184 1.6 9.7 0.00 1.32 0.00 48 1014.9
20260906174953 29 291 3.2 12.9 0.00 1.32 0.00 53 1014.9
20260906174448 28 286 3.2 12.9 0.00 1.32 0.00 50 1014.9
20260906173949 28 284 3.2 9.7 0.00 1.32 0.00 55 1014.9
20260906173445 28 280 3.2 11.3 0.00 1.32 0.00 57 1014.9
20260906172946 28 112 3.2 11.3 0.00 1.32 0.00 53 1015.0
20260906172445 28 61 3.2 11.3 0.00 1.35 0.00 53 1015.0
20260906171946 28 109 3.2 11.3 0.00 1.35 0.00 56 1015.0
20260906171445 28 149 4.8 11.3 0.00 1.37 0.00 54 1015.2
20260906170947 28 347 3.2 9.7 0.00 1.37 0.00 55 1015.3
20260906170446 27 51 3.2 12.9 0.00 1.40 0.00 59 1015.2
20260906165946 28 99 3.2 12.9 0.00 1.42 0.00 60 1015.3
20260906165446 27 84 3.2 6.4 0.00 1.42 0.00 58 1015.3
20260906165210 27 123 3.2 12.9 0.00 1.45 0.00 57 1015.3
20260906164442 27 88 3.2 12.9 0.00 1.47 0.00 55 1015.4
20260906163942 27 58 3.2 11.3 0.00 1.50 0.00 56 1015.4
20260906163443 26 41 1.6 6.4 0.00 1.52 0.00 58 1015.5
20260906162942 26 290 3.2 6.4 0.00 1.52 0.00 59 1015.4
20260906162919 27 94 1.6 9.7 0.00 1.52 0.00 63 1015.5
20260906162200 26 41 3.2 12.9 0.00 1.55 0.00 60 1015.5
20260906161444 26 298 3.2 12.9 0.00 1.55 0.00 62 1015.5
20260906160941 26 244 1.6 6.4 0.00 1.55 0.00 62 1015.6
20260906160443 26 46 0.0 4.8 0.00 1.55 0.00 62 1015.7
20260906155942 26 58 0.0 4.8 0.00 1.55 0.00 66 1015.7
20260906155444 25 232 0.0 4.8 0.00 1.55 0.00 69 1015.7
20260906154944 25 121 1.6 3.2 0.00 1.55 0.00 67 1015.6
20260906154444 25 65 1.6 3.2 0.00 1.55 0.00 69 1015.6
20260906153943 25 92 1.6 6.4 0.00 1.55 0.00 71 1015.7
20260906153442 24 75 1.6 6.4 0.00 1.55 0.00 73 1015.6
20260906152943 23 50 3.2 6.4 0.00 1.55 0.00 73 1015.6
20260906152440 23 332 1.6 8.0 0.00 1.55 0.00 74 1015.4
20260906152212 22 71 3.2 8.0 0.00 1.55 0.00 76 1015.3
20260906151705 23 108 1.6 8.0 0.00 1.55 0.00 77 1015.3
20260906150935 23 128 1.6 6.4 0.00 1.55 0.00 78 1015.4
20260906150427 23 5 1.6 11.3 0.00 1.55 0.00 79 1015.4
20260906145923 22 43 1.6 11.3 0.00 1.55 0.00 82 1015.4
20260906145416 22 300 3.2 6.4 0.00 1.55 0.00 85 1015.4
20260906144910 21 54 3.2 8.0 0.00 1.55 0.00 84 1015.4
20260906144409 21 133 1.6 8.0 0.00 1.55 0.00 84 1015.4
20260906143906 21 54 1.6 6.4 0.00 1.55 0.00 85 1015.4
20260906143407 21 88 1.6 6.4 0.00 1.55 0.00 84 1015.4
20260906142907 21 343 1.6 4.8 0.00 1.55 0.00 87 1015.4
20260906142844 20 289 1.6 4.8 0.00 1.55 0.00 90 1015.4
20260906142135 20 44 3.2 9.7 0.00 1.55 0.00 94 1015.3
20260906141407 20 73 3.2 9.7 0.00 1.55 0.00 94 1015.3
20260906140906 20 98 1.6 6.4 0.00 1.55 0.00 95 1015.3
20260906140403 19 78 1.6 6.4 0.00 1.55 0.00 95 1015.3
20260906135903 19 55 1.6 6.4 0.00 1.55 0.00 95 1015.3
20260906135401 19 90 1.6 4.8 0.00 1.55 0.00 96 1015.2
20260906134900 18 66 1.6 4.8 0.00 1.55 0.00 96 1015.2
20260906134359 18 322 1.6 6.4 0.00 1.55 0.00 96 1015.2
20260906133859 18 82 1.6 6.4 0.00 1.55 0.00 96 1015.2
20260906133401 18 103 1.6 6.4 0.00 1.55 0.00 96 1015.3
20260906132900 18 146 0.0 6.4 0.00 1.55 0.00 96 1015.2
20260906132401 18 22 0.0 1.6 0.00 1.55 0.00 96 1015.2
20260906131855 18 22 1.6 4.8 0.00 1.55 0.00 96 1015.1
20260906131608 18 70 0.0 4.8 0.00 1.55 0.00 96 1015.1
20260906130841 18 108 1.6 6.4 0.00 1.55 0.00 96 1015.0
20260906130336 18 110 1.6 6.4 0.00 1.55 0.00 96 1015.0
20260906125829 18 56 0.0 3.2 0.00 1.55 0.00 96 1015.0
20260906125324 17 61 1.6 4.8 0.00 1.55 0.00 96 1015.0
20260906124818 17 92 1.6 4.8 0.00 1.55 0.00 96 1014.9
20260906124312 17 83 0.0 8.0 0.00 1.55 0.00 96 1015.0
20260906123805 17 80 1.6 8.0 0.00 1.55 0.00 96 1015.0
20260906123300 17 86 1.6 4.8 0.00 1.55 0.00 96 1015.0
20260906122753 17 100 0.0 4.8 0.00 1.55 0.00 96 1015.0
20260906122731 17 71 0.0 3.2 0.00 1.55 0.00 96 1015.0
20260906121741 17 35 0.0 4.8 0.00 1.55 0.00 96 1014.9
20260906121729 17 344 0.0 3.2 0.00 1.55 0.00 96 1014.8
20260906120729 17 42 0.0 3.2 0.00 1.55 0.00 96 1014.7
20260906120223 17 98 0.0 0.0 0.00 1.55 0.00 96 1014.7
20260906115718 17 98 0.0 1.6 0.00 1.55 0.00 96 1014.7
20260906115212 17 98 0.0 1.6 0.00 1.55 0.00 96 1014.7
20260906114705 17 58 0.0 0.0 0.00 1.55 0.00 95 1014.5
20260906114200 17 58 0.0 0.0 0.00 1.55 0.00 95 1014.4
20260906113654 17 58 0.0 0.0 0.00 1.55 0.00 95 1014.5
20260906113147 17 58 0.0 0.0 0.00 1.55 0.00 95 1014.5
20260906112642 17 58 0.0 0.0 0.00 1.55 0.00 95 1014.4
20260906112135 17 58 0.0 0.0 0.00 1.55 0.00 95 1014.4
20260906111629 17 58 0.0 0.0 0.00 1.55 0.00 95 1014.2
20260906111123 17 58 0.0 0.0 0.00 1.55 0.00 95 1014.1
20260906110617 17 58 0.0 0.0 0.00 1.55 0.00 95 1014.1
20260906110335 17 58 0.0 0.0 0.00 1.55 0.00 95 1014.0
20260906105605 17 58 0.0 0.0 0.00 1.55 0.00 95 1014.1
20260906105100 17 58 0.0 0.0 0.00 1.55 0.00 95 1014.0
20260906104553 17 58 0.0 0.0 0.00 1.55 0.00 95 1014.0
20260906104047 17 58 0.0 0.0 0.00 1.55 0.00 95 1013.8
20260906103541 17 58 0.0 0.0 0.00 1.55 0.00 95 1013.8
20260906103035 17 58 0.0 0.0 0.00 1.55 0.00 95 1013.7
20260906102529 17 58 0.0 0.0 0.00 1.55 0.00 95 1013.7
20260906102023 17 58 0.0 0.0 0.00 1.55 0.00 95 1013.7
20260906101518 17 58 0.0 0.0 0.00 1.55 0.00 95 1013.7
20260906101011 17 58 0.0 0.0 0.00 1.55 0.00 95 1013.6
20260906100702 17 58 0.0 0.0 0.00 1.55 0.00 95 1013.4
20260906100554 17 58 0.0 0.0 0.00 1.55 0.00 95 1013.5
20260906095452 17 58 0.0 0.0 0.00 1.55 0.00 95 1013.4
20260906094947 17 58 0.0 0.0 0.00 1.55 0.00 95 1013.4
20260906094441 18 58 0.0 0.0 0.00 1.55 0.00 95 1013.5
20260906093935 18 58 0.0 0.0 0.00 1.55 0.00 95 1013.4
20260906093429 18 58 0.0 0.0 0.00 1.55 0.00 95 1013.2
20260906092923 18 58 0.0 0.0 0.00 1.55 0.00 95 1013.1
20260906092417 18 58 0.0 0.0 0.00 1.55 0.00 95 1013.2
20260906091911 18 58 0.0 0.0 0.00 1.55 0.00 95 1013.2
20260906091409 18 58 0.0 0.0 0.00 1.55 0.00 95 1013.2
20260906090859 18 58 0.0 0.0 0.00 1.55 0.00 95 1013.1
20260906090354 18 58 0.0 0.0 0.00 1.55 0.00 95 1012.8
20260906085847 18 58 0.0 0.0 0.00 1.55 0.00 95 1012.8
20260906085341 18 58 0.0 0.0 0.00 1.55 0.00 95 1012.7
20260906084836 18 58 0.0 0.0 0.00 1.55 0.00 95 1012.7
20260906084329 18 58 0.0 0.0 0.00 1.55 0.00 95 1012.8
20260906083823 18 58 0.0 0.0 0.00 1.55 0.00 95 1012.7
20260906083318 18 58 0.0 0.0 0.00 1.55 0.00 95 1012.7
20260906082811 18 58 0.0 0.0 0.00 1.55 0.00 95 1012.6
20260906082306 18 58 0.0 0.0 0.00 1.55 0.00 95 1012.5
20260906081759 18 58 0.0 0.0 0.00 1.55 0.00 95 1012.4
20260906081525 18 58 0.0 0.0 0.00 1.55 0.00 95 1012.4
20260906080752 19 58 0.0 0.0 0.00 1.55 0.00 95 1012.4
20260906080252 19 58 0.0 0.0 0.00 1.55 0.00 95 1012.4
20260906075751 19 58 0.0 1.6 0.00 1.55 0.00 95 1012.4
20260906075513 19 58 0.0 1.6 0.00 1.55 0.00 95 1012.4
20260906074747 19 58 0.0 1.6 0.00 1.55 0.00 95 1012.4
20260906074245 19 58 0.0 1.6 0.00 1.55 0.00 95 1012.3
20260906073743 19 58 0.0 1.6 0.00 1.55 0.00 95 1012.3
20260906073242 19 58 0.0 0.0 0.00 1.55 0.00 95 1012.4
20260906072741 19 58 0.0 0.0 0.00 1.55 0.00 95 1012.3
20260906072503 19 58 0.0 1.6 0.00 1.55 0.00 95 1012.2
20260906071741 19 58 0.0 1.6 0.00 1.55 0.00 95 1012.2
20260906071503 19 58 0.0 0.0 0.00 1.55 0.00 95 1012.3
20260906070736 19 58 0.0 0.0 0.00 1.55 0.00 95 1012.3
20260906070234 19 58 0.0 0.0 0.00 1.55 0.00 95 1012.4
20260906065733 19 58 0.0 0.0 0.00 1.55 0.00 95 1012.4
20260906065235 19 58 0.0 0.0 0.00 1.55 0.00 95 1012.4
20260906064730 19 58 0.0 0.0 0.00 1.55 0.00 95 1012.4
20260906064228 19 58 0.0 0.0 0.00 1.57 0.00 95 1012.5
20260906063729 19 58 0.0 0.0 0.00 1.57 0.00 95 1012.4
20260906063229 20 58 0.0 0.0 0.00 1.57 0.00 95 1012.4
20260906062730 20 58 0.0 0.0 0.00 1.57 0.00 95 1012.5
20260906062228 20 58 0.0 0.0 0.00 1.57 0.00 95 1012.5
20260906061729 20 58 0.0 0.0 0.00 1.57 0.00 95 1012.4
20260906061228 20 58 0.0 0.0 0.00 1.57 0.00 95 1012.4
20260906060729 20 58 0.0 0.0 0.00 1.57 0.00 95 1012.4
20260906060226 20 58 0.0 0.0 0.00 1.57 0.00 95 1012.3
20260906055724 20 58 0.0 0.0 0.00 1.57 0.00 95 1012.4
20260906055225 20 58 0.0 0.0 0.00 1.57 0.00 95 1012.3
20260906054724 20 58 0.0 0.0 0.00 1.57 0.00 95 1012.4
20260906054226 20 58 0.0 0.0 0.00 1.57 0.00 95 1012.4
20260906053947 20 58 0.0 0.0 0.00 1.57 0.00 95 1012.4
20260906053226 20 58 0.0 0.0 0.00 1.57 0.00 95 1012.4
20260906052725 20 58 0.0 0.0 0.00 1.57 0.00 95 1012.4
20260906052450 20 58 0.0 0.0 0.00 1.57 0.00 95 1012.5
20260906051724 20 58 0.0 0.0 0.00 1.57 0.00 95 1012.5
20260906051226 20 58 0.0 0.0 0.00 1.57 0.00 95 1012.6
20260906050724 20 58 0.0 0.0 0.00 1.57 0.00 95 1012.6
20260906050225 20 58 0.0 0.0 0.00 1.57 0.00 95 1012.6
20260906045726 20 58 0.0 0.0 0.00 1.57 0.00 95 1012.6
20260906045223 20 58 0.0 0.0 0.00 1.57 0.00 94 1012.5
20260906044720 20 58 0.0 0.0 0.00 1.57 0.00 94 1012.5
20260906044219 20 58 0.0 0.0 0.00 1.57 0.00 94 1012.5
20260906043718 20 58 0.0 0.0 0.00 1.57 0.00 95 1012.5
20260906043217 21 58 0.0 0.0 0.00 1.57 0.00 95 1012.5
20260906042713 21 58 0.0 0.0 0.00 1.57 0.00 95 1012.7
20260906042213 21 58 0.0 0.0 0.00 1.57 0.00 95 1012.9
20260906041713 21 58 0.0 0.0 0.00 1.57 0.00 95 1012.8
20260906041211 21 58 0.0 0.0 0.00 1.57 0.00 94 1012.9
20260906040933 21 58 0.0 0.0 0.00 1.57 0.00 94 1012.9
20260906040209 21 58 0.0 0.0 0.00 1.57 0.00 94 1012.9
20260906035708 21 58 0.0 0.0 0.00 1.57 1.57 94 1012.8
20260906035205 21 58 0.0 0.0 0.00 1.57 1.57 94 1012.9
20260906034703 21 58 0.0 0.0 0.00 1.57 1.57 94 1013.0
20260906034207 21 58 0.0 0.0 0.00 1.57 1.57 94 1013.0
20260906033703 21 58 0.0 0.0 0.00 1.57 1.57 94 1012.9
20260906033203 21 58 0.0 0.0 0.00 1.57 1.57 94 1012.7
20260906032703 21 58 0.0 0.0 0.00 1.57 1.57 94 1012.6
20260906032205 21 58 0.0 0.0 0.03 1.57 1.57 94 1012.8
20260906031931 21 58 0.0 0.0 0.03 1.57 1.57 94 1012.8
20260906031204 21 58 0.0 0.0 0.03 1.57 1.57 94 1012.8
20260906030703 21 58 0.0 0.0 0.03 1.57 1.57 94 1012.8
20260906030202 21 58 0.0 0.0 0.03 1.57 1.57 94 1012.6
20260906025703 21 58 0.0 0.0 0.05 1.57 1.57 94 1012.6
20260906025203 21 58 0.0 0.0 0.05 1.57 1.57 94 1012.5
20260906024703 21 58 0.0 0.0 0.05 1.57 1.57 94 1012.6
20260906024201 21 58 0.0 0.0 0.08 1.57 1.57 94 1012.5
20260906023700 21 58 0.0 0.0 0.08 1.57 1.57 94 1012.5
20260906023156 21 58 0.0 0.0 0.10 1.57 1.57 94 1012.5
20260906022655 21 58 0.0 0.0 0.10 1.57 1.57 94 1012.4
20260906022155 21 58 0.0 0.0 0.10 1.55 1.55 94 1012.4
20260906021920 21 58 0.0 0.0 0.13 1.55 1.55 94 1012.5
20260906021150 22 58 0.0 0.0 0.13 1.55 1.55 94 1012.6
20260906020907 22 58 0.0 0.0 0.15 1.55 1.55 94 1012.6
20260906020149 22 58 0.0 0.0 0.18 1.55 1.55 94 1012.6
20260906015642 22 58 0.0 0.0 0.15 1.52 1.52 94 1012.4
20260906015405 22 58 0.0 0.0 0.18 1.52 1.52 94 1012.4
20260906014631 22 58 0.0 0.0 0.20 1.52 1.52 94 1012.4
20260906014126 22 58 0.0 0.0 0.20 1.50 1.50 94 1012.3
20260906013619 22 58 0.0 0.0 0.23 1.50 1.50 94 1012.3
20260906013113 22 58 0.0 1.6 0.23 1.47 1.47 94 1012.2
20260906012612 22 58 0.0 3.2 0.23 1.45 1.47 94 1012.2
20260906012315 22 58 0.0 3.2 0.25 1.45 1.45 94 1012.2
20260906011551 22 42 0.0 3.2 0.25 1.42 1.42 94 1012.1
20260906011045 22 62 0.0 3.2 0.25 1.40 1.42 94 1012.0
20260906010540 22 355 0.0 1.6 0.28 1.40 1.40 94 1011.8
20260906010235 22 355 0.0 1.6 0.28 1.35 1.35 94 1011.6
20260906010120 22 355 0.0 1.6 0.28 1.37 1.37 94 1011.7
20260906005021 22 355 0.0 1.6 0.30 1.35 1.35 94 1011.5
20260906004515 22 55 0.0 1.6 0.30 1.32 1.32 93 1011.5
20260906004010 22 55 0.0 1.6 0.33 1.30 1.30 93 1011.5
20260906003504 22 55 0.0 1.6 0.30 1.27 1.27 93 1011.4
20260906002957 22 69 0.0 3.2 0.33 1.24 1.24 93 1011.5
20260906002759 22 69 0.0 3.2 0.33 1.22 1.22 93 1011.5
20260906002724 23 157 0.0 0.0 0.33 1.19 1.19 93 1011.4
20260906001440 23 157 0.0 0.0 0.33 1.17 1.17 93 1011.4
20260906000933 23 157 0.0 0.0 0.33 1.14 1.14 93 1011.3
20260906000433 23 157 0.0 0.0 0.36 1.12 1.12 93 1011.3
20260905235922 23 157 0.0 0.0 0.36 1.09 1.09 93 1011.3
20260905235634 23 157 0.0 0.0 0.33 1.04 1.07 93 1011.3